Showing default

FLOCK 4H 4, 66707

Orbit data source: Space-Track

FLOCK 4H 4, 66707 is a payload satellite owned by Planet (US) in SSO that was launched on Fri, 28 Nov 2025 UTC via an FALCON 9 launch vehicle from the Air Force Western Test Range (AFWTR). Payload-class satellites include a variety of spacecraft equipped with specific instruments for various scientific and technological missions. These include communications satellites like Starlink; space stations such as the ISS; scientific satellites like the Hubble; Earth observation satellites from companies like Planet Labs, Umbra, and HawkEye 360; GPS; miniature CubeSats for education and research; and military/defense satellites.

Loading next visibility...
Identifier
66707, 2025-276AT
Orbit
SSO
Country
Flag of USUS
Related business
Manufacturer
Planet
Mission
Operational Commercial Imaging
Bus & Motor
CUBESAT 3U, Unknown motor
Mass
5.7 kg wet, 5.7 kg dry
Launch date (UTC)
2025-11-28 (6 months ago)
Launch vehicle
FALCON 9
Launch site
Air Force Western Test Range (AFWTR)
Object type
Payload
Rocket body
Debris
Shape & HBR
Box + 2 Pan, 1.0 m
Radar Cross Section
0.072 m²

Expand to show TLE details & history
Last TLE update: 7 hours ago

TLE from 7 hours ago
0 FLOCK 4H 4
1 66707U 25276AT  26144.91994472  .00005216  00000-0  24952-3 0  9999
2 66707  97.4228 218.8507 0006308  88.5537 271.6421 15.19397757 26885
Epoch: 2026-05-24T22:04Z
TLE epoch observation values (Epoch: 2026-05-24T22:04:43.223Z)
Latitude
0.00002°
Longitude
5.15543°
Altitude
510.627 km
Speed
7.609 km/s
True Right ascension
14h 35m 24s
True Declination
0° 00' 00"
Sunlit
Object was in full shadow at epoch
Visualization orbit readout
Latitude
Unknown
Longitude
Unknown
Altitude
Unknown
Speed
Unknown
Apparent Right ascension
Unknown
Apparent Declination
Unknown
Sunlit
N/A
Visualization observer readout
Local Sidereal Time
13:54:21
Azimuth
Unknown
Elevation
Unknown
Doppler factor
Unknown
Orbital elements
Apogee altitude
508.969 km
Perigee altitude
500.285 km
Semi-major axis
6,882.764 km
Eccentricity
0.00063
Inclination
97.4228°
RAAN
218.8507°
Arg. of periapsis
88.5537°
True anomaly
271.56984°
Mean anomaly
271.6421°
Eccentric anomaly
271.60597°
Mean motion
3.80101 °/min
Orbital period
94.71 mins
BSTAR
0.00024952
Loading maneuver chart data...
Computing Atmospheric mass density...
Loading historical data...
Loading historical data...
Loading historical data...
Loading historical data...
Loading historical data...
Loading historical data...
Loading historical data...

Documentation

Showing up to 5 results
|